[[{"header":{"parameterUnit":"m.s-1","parameterCategory":1,"la1":30.2992,"la2":30.254,"lo1":-89.0895,"lo2":-89.0443,"dy":0.0025,"dx":0.0025,"nx":19,"ny":19,"refTime":"2026-03-21T09:00:00:Z","depth":0,"parameterNumber":2,"parameterNumberName":"U-component_of_WINDS"},"data":[0,0,0,3.5463,3.5465,3.5593,3.5593,3.576,3.5761,0,0,0,0,0,0,0,0,0,0,0,3.5426,3.5427,3.5463,3.5466,3.5593,3.5594,3.5759,3.5761,0,0,0,0,0,0,0,0,0,0,0,3.5426,3.5427,3.5428,3.5466,3.5593,3.5594,3.5759,3.5662,0,0,0,0,0,0,0,0,0,0,3.5538,3.5505,3.5427,3.5428,3.5467,3.5593,3.5594,3.5657,3.5668,3.5703,0,3.5733,0,3.575,3.5772,3.5773,0,0,0,3.5465,3.5496,3.5529,3.5429,3.5468,3.5593,3.5535,3.5663,3.5675,3.5717,3.5736,3.5742,3.5753,3.5773,3.5774,3.5974,3.5974,0,0,3.5458,3.545,3.5521,3.5537,3.5516,3.5531,3.5539,3.5671,3.5691,3.5736,3.5746,3.5755,3.5775,3.5776,3.5973,3.5974,0,0,0,3.5438,3.5445,3.5475,3.553,3.5553,3.5535,3.5544,3.5685,3.5695,3.5748,3.5757,3.5776,3.5778,3.5972,3.5973,3.601,0,0,0,3.5434,3.5433,3.5472,3.5468,3.555,3.562,3.5556,3.5686,3.5701,3.5756,3.5776,3.5779,3.5971,3.5972,3.6006,3.6028,0,0,0,3.5418,3.5431,3.545,3.5467,3.5522,3.5618,3.5636,3.569,3.5707,3.5773,3.578,3.597,3.5972,3.6004,3.6024,3.6076,0,0,0,3.5398,3.5483,3.5451,3.555,3.5521,3.564,3.5635,3.5726,3.5787,3.5776,3.5971,3.5973,3.6003,3.6021,3.6073,3.6118,3.6136,0,0,3.55,3.5495,3.5554,3.5529,3.5651,3.5621,3.575,3.5815,3.583,3.5925,3.593,3.6008,3.6023,3.6076,3.6245,3.6259,0,0,0,3.5583,3.5625,3.566,3.5716,3.5767,3.5812,3.5858,3.5881,3.5962,3.5877,3.6042,3.6052,3.6083,3.6105,3.6117,3.6143,3.5983,3.5983,3.5983,3.5716,3.5729,3.5827,3.5855,3.591,3.5956,3.6002,3.6042,3.6041,3.608,3.6107,3.6208,3.6233,3.6242,3.6269,3.6134,3.6134,3.6134,3.6134,3.5866,3.5926,3.5921,3.6014,3.6027,3.6106,3.6153,3.615,3.6225,3.6189,3.6217,3.6174,3.6257,3.6282,3.6137,3.6136,3.6136,3.6136,3.6136,3.5952,3.5983,3.601,3.6092,3.6154,3.6181,3.6253,3.6264,3.6275,3.6303,3.6332,3.6331,3.633,3.6316,3.6317,3.6317,3.6317,3.6318,3.6318,3.6029,3.6059,3.6117,3.6177,3.6214,3.6265,3.6311,3.6349,3.6392,3.6395,3.6395,3.6388,3.6264,3.6231,3.6323,3.6322,3.6322,3.6321,3.6321,3.6172,3.6142,3.6231,3.6268,3.6339,3.64,3.6413,3.6488,3.652,3.6555,3.6543,3.645,3.6445,3.6435,3.6408,3.6541,3.6541,3.6541,3.6541,3.6243,3.6242,3.6335,3.6394,3.6452,3.6473,3.6574,3.6611,3.6645,3.6666,3.6649,3.6614,3.6604,3.6606,3.6592,3.6567,3.6737,3.6737,3.6737,3.6331,3.6336,3.6419,3.645,3.6506,3.6555,3.6649,3.6716,3.6749,3.6746,3.6682,3.6674,3.6618,3.66,3.6592,3.6572,3.6525,0,0]},{"header":{"parameterUnit":"m.s-1","parameterCategory":1,"la1":30.2992,"la2":30.254,"lo1":-89.0895,"lo2":-89.0443,"dy":0.0025,"dx":0.0025,"nx":19,"ny":19,"refTime":"2026-03-21T09:00:00:Z","depth":0,"parameterNumber":3,"parameterNumberName":"V-component_of_WINDS"},"data":[0,0,0,3.367,3.3671,3.374,3.3741,3.382,3.382,0,0,0,0,0,0,0,0,0,0,0,3.3646,3.3647,3.367,3.3671,3.374,3.3741,3.382,3.382,0,0,0,0,0,0,0,0,0,0,0,3.3646,3.3647,3.3647,3.3672,3.374,3.3741,3.3819,3.377,0,0,0,0,0,0,0,0,0,0,3.3704,3.368,3.3647,3.3647,3.3672,3.374,3.3741,3.3768,3.3773,3.3785,0,3.3798,0,3.381,3.3825,3.3826,0,0,0,3.3673,3.3676,3.3697,3.3647,3.3673,3.374,3.371,3.3771,3.3777,3.3792,3.3799,3.3802,3.3812,3.3826,3.3826,3.3897,3.3897,0,0,3.3669,3.3656,3.3693,3.3701,3.3693,3.3707,3.3712,3.3775,3.378,3.3799,3.3804,3.3813,3.3826,3.3827,3.3897,3.3897,0,0,0,3.3657,3.3654,3.3674,3.3698,3.3711,3.3709,3.3714,3.3777,3.3785,3.3805,3.3814,3.3827,3.3828,3.3897,3.3897,3.3898,0,0,0,3.3655,3.3647,3.3672,3.3665,3.371,3.3745,3.3715,3.378,3.3788,3.3814,3.3827,3.3828,3.3896,3.3897,3.3898,3.3901,0,0,0,3.3643,3.3645,3.3655,3.3664,3.3694,3.3745,3.3756,3.3782,3.3793,3.3826,3.3828,3.3896,3.3897,3.3897,3.39,3.3916,0,0,0,3.3625,3.3653,3.3654,3.3689,3.3693,3.3746,3.3756,3.3795,3.3823,3.3827,3.3897,3.3897,3.3897,3.3899,3.3915,3.3927,3.3931,0,0,3.3653,3.3656,3.3678,3.3681,3.373,3.3736,3.3785,3.3821,3.3835,3.3875,3.3877,3.3898,3.39,3.3916,3.3958,3.3961,0,0,0,3.3682,3.3697,3.3713,3.374,3.377,3.3796,3.3826,3.384,3.3875,3.3854,3.3909,3.391,3.392,3.3926,3.3929,3.3938,3.39,3.3899,3.3899,3.3702,3.372,3.3757,3.3783,3.3809,3.3841,3.3863,3.3886,3.3894,3.3907,3.3919,3.3943,3.395,3.3952,3.3961,3.3927,3.3927,3.3927,3.3927,3.3745,3.3769,3.3782,3.3822,3.3839,3.3872,3.3903,3.3909,3.394,3.3935,3.3945,3.3937,3.3955,3.3964,3.3927,3.3927,3.3927,3.3927,3.3927,3.376,3.3774,3.3792,3.3834,3.3863,3.3888,3.3918,3.3933,3.3946,3.3956,3.397,3.397,3.3972,3.3962,3.3962,3.3962,3.3962,3.3962,3.3962,3.3768,3.3788,3.3813,3.3848,3.3868,3.3895,3.3928,3.3947,3.3971,3.3979,3.3979,3.3986,3.3954,3.3945,3.3964,3.3963,3.3963,3.3963,3.3963,3.3803,3.3798,3.3837,3.3857,3.39,3.3928,3.3947,3.3984,3.4002,3.4016,3.4022,3.3995,3.3998,3.3996,3.3989,3.4018,3.4018,3.4018,3.4018,3.3815,3.3819,3.3864,3.3894,3.3926,3.3948,3.399,3.4015,3.404,3.4051,3.4049,3.4041,3.4039,3.4043,3.404,3.4034,3.4073,3.4074,3.4074,3.3838,3.3846,3.388,3.3907,3.3941,3.397,3.401,3.4043,3.407,3.4076,3.4061,3.4058,3.4046,3.4041,3.4046,3.4041,3.403,0,0]}]]